Temperature
14 14 13 13 13 12 12 12 12 12 11 11 11 11 11 11 11 11 11 11 11 11 11 12 12 12 12 12 12 12 12 12 12 13 13 14 14 14 15 15 15 16 16
14 14 14 13 13 13 13 12 12 12 12 11 11 11 11 11 11 11 11 11 11 11 11 11 12 12 12 12 12 12 12 12 12 12 13 13 14 14 14 15 15 15 16
15 15 14 14 14 13 13 13 12 12 12 12 11 11 11 11 11 11 11 11 11 11 11 11 11 11 12 12 12 12 12 12 12 12 12 13 13 13 14 14 15 15 15
15 15 15 14 14 14 14 13 13 13 12 12 12 12 11 11 11 11 11 11 11 11 11 11 11 11 11 11 11 12 12 12 12 12 12 12 13 13 13 14 14 14 15
16 15 15 15 15 14 14 14 13 13 13 12 12 12 12 12 12 12 11 11 11 11 11 11 11 11 11 11 11 11 11 11 11 12 12 12 12 13 13 13 13 14 14
16 16 16 15 15 15 14 14 14 14 13 13 13 12 12 12 12 12 12 12 12 11 11 11 11 11 11 11 11 11 11 11 11 11 11 11 12 12 12 13 13 13 13
16 16 16 16 16 15 15 15 14 14 14 13 13 13 13 12 12 12 12 12 12 12 11 11 11 11 11 11 11 11 11 11 11 11 11 11 12 12 12 12 12 12 13
17 17 16 16 16 16 15 15 15 14 14 14 13 13 13 13 12 12 12 12 12 12 12 12 11 11 11 11 11 11 11 11 11 11 11 11 11 11 11 12 12 12 12
17 17 17 16 16 16 16 15 15 15 14 14 14 14 13 13 13 12 12 12 12 12 12 12 11 11 11 11 11 11 11 11 11 11 11 11 11 11 11 11 11 11 12
17 17 17 17 16 16 16 15 15 15 14 14 14 14 14 13 13 13 12 12 12 12 12 12 11 11 11 11 11 11 11 11 11 11 11 11 11 11 11 11 11 11 11
17 17 17 16 16 16 16 15 15 15 14 14 14 14 14 14 13 13 13 12 12 12 12 12 11 11 11 11 11 11 11 11 11 11 11 11 11 11 11 11 11 11 11
17 17 16 16 16 16 15 15 15 15 14 14 14 14 14 14 13 13 13 13 12 12 12 12 11 11 11 11 11 11 11 11 11 11 11 11 11 11 11 11 11 11 11
17 16 16 16 15 15 15 15 14 14 14 14 13 14 14 14 13 13 13 13 13 12 12 12 11 11 11 11 11 11 11 11 11 11 11 11 11 11 11 11 11 11 11
16 16 16 15 15 15 14 14 13 13 13 13 13 13 13 13 13 13 13 13 13 12 12 12 11 11 11 11 11 11 11 11 11 11 11 11 11 11 11 11 11 11 11
16 16 15 15 14 14 13 12 12 12 12 12 12 12 12 12 13 12 13 12 12 12 12 11 11 11 11 11 11 11 10 10 10 10 10 10 10 10 10 10 11 11 10
16 15 15 14 13 12 12 11 11 10 10 10 11 11 11 11 12 12 12 12 12 12 11 11 11 10 10 11 11 11 10 10 10 10 10 10 10 10 10 10 10 10 10
15 15 14 13 12 11 11 10 10 9 9 10 10 10 10 10 11 11 11 11 11 11 11 11 10 10 10 10 10 10 10 10 10 10 10 10 10 10 10 10 10 10 10
14 14 13 12 11 11 10 9 9 9 9 9 9 9 9 9 10 10 10 10 10 10 10 10 9 9 9 9 9 9 9 9 9 9 9 9 9 9 10 10 10 10 10
13 13 12 11 10 10 9 9 8 8 8 8 8 8 8 8 8 9 9 9 9 9 8 8 8 8 8 8 8 8 8 8 8 8 9 9 9 9 9 9 9 9 9
12 11 11 10 9 9 8 8 8 7 7 7 7 7 7 7 8 8 7 7 7 7 7 7 7 7 7 7 7 7 7 7 7 7 7 7 8 8 8 8 8 8 8
11 10 10 9 8 8 8 7 7 7 7 7 6 6 6 6 6 6 6 6 6 6 6 6 5 5 5 6 6 6 6 6 6 6 6 6 6 7 7 7 7 7 7
10 10 9 8 8 7 7 6 6 6 6 6 5 5 5 5 5 5 5 5 4 4 4 4 4 4 4 4 4 4 4 4 4 5 5 5 5 5 5 6 6 6 6
9 8 8 7 7 6 6 6 5 5 5 5 5 4 4 4 4 4 4 4 3 3 3 3 3 3 3 3 3 3 3 3 3 3 3 3 4 4 4 4 5 5 5
8 8 7 7 6 6 5 5 5 5 4 4 4 4 4 4 3 3 3 3 3 3 3 3 3 2 2 2 2 2 2 2 2 2 2 2 2 3 3 3 3 4 4
7 7 6 6 6 5 5 5 5 4 4 4 4 4 3 3 3 3 3 3 3 2 2 2 2 2 2 2 2 2 2 2 2 2 1 1 2 2 2 2 2 2 3
6 6 6 6 5 5 5 5 4 4 4 4 3 3 3 3 3 3 2 2 2 2 2 2 2 2 2 2 2 1 1 1 1 1 1 1 1 1 1 1 1 1 2
Wind_Speed
5 4 4 3 3 2 3 3 3 2 2 2 2 3 3 3 3 2 2 2 2 3 3 2 3 3 2 2 2 2 3 3 5 4 3 3 3 4 4 5 7 8 9
5 4 4 3 2 3 3 3 2 2 2 2 2 2 3 3 2 2 3 2 3 4 4 4 4 3 3 3 2 3 3 4 4 5 3 3 3 4 4 5 4 6 7
4 4 4 4 4 4 4 3 2 2 2 2 2 2 3 3 3 3 2 3 3 4 4 4 4 3 3 3 3 3 3 3 4 4 4 3 3 3 3 4 4 4 6
5 5 5 5 5 5 4 3 3 3 3 3 3 3 3 4 4 3 3 3 4 4 4 4 4 4 4 4 4 4 3 3 3 4 4 3 3 3 2 3 4 3 4
6 6 7 6 5 4 4 4 3 3 3 3 3 4 4 4 4 3 3 3 4 4 5 4 4 5 5 4 4 3 3 3 3 3 4 3 3 2 3 3 4 4 4
7 8 6 5 5 5 5 4 4 4 4 3 4 4 5 4 6 6 3 3 3 4 5 5 5 5 6 7 7 5 4 4 4 4 4 5 6 5 4 4 3 3 3
7 7 6 6 6 6 5 5 5 5 4 5 5 5 6 8 9 8 6 2 3 3 4 4 4 5 6 5 7 7 5 5 5 5 6 6 6 5 4 5 5 5 5
7 7 6 6 7 6 5 6 6 5 5 5 6 6 6 8 9 8 6 2 3 4 4 4 4 5 5 5 4 5 4 4 4 4 5 6 7 6 6 6 6 5 4
6 7 6 6 6 6 7 7 6 4 5 5 6 6 6 8 9 8 5 2 3 5 4 4 4 4 7 7 4 5 6 5 5 5 6 7 9 9 7 4 4 5 5
6 6 5 5 6 6 7 6 4 4 5 5 6 6 7 8 10 9 6 2 3 4 4 4 5 5 7 6 3 4 6 6 5 6 6 7 6 6 6 5 5 5 4
4 3 2 3 4 5 4 3 4 4 4 5 6 6 6 8 9 9 7 4 4 4 4 4 4 6 7 7 6 4 7 7 5 5 5 6 5 4 4 4 4 5 6
3 3 1 0 0 1 1 2 2 3 4 5 5 6 5 5 6 8 8 8 7 5 5 4 4 7 7 8 6 7 9 7 3 4 4 5 5 5 4 4 5 6 6
5 4 2 2 2 2 1 1 1 1 2 3 3 5 6 4 4 7 8 7 8 5 5 5 5 6 6 6 7 9 7 3 3 3 4 5 4 5 5 4 5 5 5
6 4 3 3 3 3 3 2 2 2 2 2 3 4 5 5 4 4 3 3 3 4 2 2 3 5 4 5 6 5 4 3 3 4 5 5 4 4 4 3 4 4 4
6 5 4 4 3 3 3 3 3 3 2 1 2 2 3 5 6 5 2 1 1 1 2 2 3 3 5 5 4 5 4 4 3 3 4 5 5 5 5 3 3 3 4
7 5 4 3 3 3 3 4 8 7 11 12 10 6 3 4 7 6 4 3 4 6 5 3 3 3 4 5 5 5 4 4 4 4 4 4 5 6 6 4 4 4 6
8 6 4 4 4 3 3 4 4 6 9 12 14 14 12 12 12 11 10 11 11 9 6 4 4 4 4 4 4 4 4 5 5 5 5 5 5 5 5 6 5 5 6
8 8 7 5 4 4 4 4 3 4 4 5 8 13 15 16 16 14 12 10 9 8 6 5 5 5 5 5 5 5 5 6 7 7 7 6 6 6 6 6 6 7 7
8 6 6 5 5 5 4 4 4 5 4 4 4 7 11 11 13 15 12 8 7 6 6 5 5 5 5 5 5 6 6 6 7 7 7 8 8 7 7 8 8 9 8
7 12 9 6 5 5 5 5 4 4 4 4 4 4 4 5 6 7 7 5 5 5 4 4 4 4 4 4 5 5 5 5 6 6 6 7 7 7 8 9 9 9 8
7 9 12 8 5 5 5 4 4 4 3 3 2 3 4 4 4 4 4 4 3 3 3 3 3 3 3 3 3 4 5 4 5 5 6 6 7 8 8 8 9 9 9
7 7 6 6 5 5 4 4 3 3 2 2 1 2 4 3 2 2 2 2 2 2 2 2 2 3 3 3 3 3 4 5 5 5 6 6 6 7 8 8 9 9 9
8 8 7 6 5 6 5 4 3 3 2 1 1 1 1 1 2 2 2 3 3 3 3 3 3 4 4 4 4 4 4 5 5 6 6 7 7 7 7 9 10 11 11
8 8 7 6 5 5 4 3 3 2 2 2 1 2 2 2 3 4 4 4 4 4 4 4 4 6 8 7 7 8 8 9 9 7 8 8 9 8 8 8 9 11 11
8 7 7 6 6 5 4 3 3 2 2 2 2 2 2 3 3 4 4 4 5 5 6 6 5 6 9 10 10 11 14 16 15 12 8 8 10 11 11 11 11 11 11
7 7 6 6 5 5 4 4 3 3 2 2 2 2 3 3 4 4 4 4 5 5 6 5 7 9 11 11 13 15 17 17 18 18 12 8 10 11 12 11 13 12 13
Wind_Direction
237 233 239 248 246 241 250 268 279 296 316 330 337 345 351 355 356 359 340 338 341 333 334 323 308 296 291 281 254 232 228 221 246 266 255 265 268 278 288 273 261 251 251
230 225 232 241 235 242 256 265 267 291 304 308 326 339 338 340 339 337 325 329 324 320 319 318 310 309 297 285 270 251 236 227 233 259 266 263 260 272 277 277 270 261 252
217 216 227 233 232 241 250 258 260 272 290 298 308 315 317 319 318 314 304 305 303 298 298 300 302 305 295 287 277 268 256 247 233 246 265 259 264 272 277 277 270 263 260
209 213 227 233 232 239 246 250 250 253 264 275 280 285 291 296 299 299 299 300 303 304 296 289 290 281 272 276 273 261 250 248 247 251 263 270 269 272 264 270 280 263 267
205 218 231 235 233 236 241 245 247 251 255 264 277 288 292 288 280 281 281 289 303 315 318 311 302 300 295 289 279 261 240 236 247 253 264 269 271 268 257 251 264 281 270
209 225 232 228 229 233 238 242 246 255 260 264 270 278 289 286 297 299 284 276 292 304 313 318 316 320 331 335 333 314 257 237 242 246 256 266 268 259 255 253 255 270 274
216 228 227 224 230 234 234 237 244 249 251 260 265 268 277 282 292 298 294 273 272 283 290 303 315 323 333 328 332 339 326 296 261 246 254 260 261 253 251 258 251 248 250
219 230 229 223 231 234 229 237 242 241 244 253 261 263 270 278 288 291 288 275 271 280 278 276 286 302 314 325 325 328 320 305 289 265 251 261 264 262 250 253 258 262 262
222 232 231 221 227 231 235 241 239 236 246 247 254 259 264 277 284 284 275 237 268 282 281 274 273 283 306 325 326 319 317 310 296 285 277 282 284 280 267 255 252 255 265
223 231 230 215 218 231 239 244 236 231 247 256 261 256 253 266 279 281 266 210 253 277 288 283 278 281 298 316 310 305 307 302 309 314 310 307 300 294 284 250 243 250 258
214 211 210 210 221 236 247 243 240 244 255 261 268 271 262 260 273 276 258 208 223 250 273 282 282 295 301 309 307 279 281 288 293 299 304 306 306 301 290 261 241 242 250
149 136 122 100 256 249 248 273 262 250 262 272 279 289 279 270 265 271 262 236 215 217 246 256 272 298 306 310 309 300 301 303 291 297 300 301 301 298 293 283 267 254 248
122 114 100 74 49 32 27 336 329 303 272 283 283 289 297 297 285 279 274 261 231 216 237 253 281 309 322 321 319 320 320 308 299 298 298 295 287 284 291 294 287 276 266
126 117 98 81 54 39 39 36 33 358 328 311 305 297 300 307 307 301 282 281 258 231 243 305 342 351 346 324 325 330 326 297 284 283 288 291 295 297 293 291 292 300 292
122 114 97 82 74 55 47 46 46 34 42 6 317 303 311 314 312 307 286 248 196 160 109 61 33 12 360 352 343 333 328 332 319 295 291 298 302 303 299 293 281 284 279
127 120 110 99 84 77 75 57 46 54 51 51 44 38 7 348 344 360 31 85 104 108 91 65 36 12 355 344 340 336 332 335 327 314 309 304 305 305 304 300 287 285 285
135 132 121 110 100 91 83 83 59 29 34 38 37 40 41 35 39 48 65 73 71 76 71 56 36 15 1 350 345 341 337 334 329 328 325 323 318 313 308 304 300 294 290
129 131 126 116 110 102 95 88 81 71 46 18 18 31 39 44 46 49 59 70 60 54 56 49 33 21 12 7 5 3 1 2 3 0 355 349 341 332 324 317 309 301 298
131 128 123 117 111 105 99 91 83 76 68 42 24 23 28 37 44 45 50 61 64 55 47 42 31 23 18 16 16 16 15 14 8 4 2 356 350 343 336 330 322 312 304
138 139 133 124 115 107 102 98 92 84 74 58 42 23 10 33 46 39 42 47 54 51 42 36 26 19 18 20 16 15 17 13 7 5 357 352 347 345 340 334 331 327 320
136 141 137 125 122 122 118 114 112 106 95 78 42 30 53 56 49 37 32 32 33 30 20 16 6 359 0 4 3 1 2 359 355 353 350 347 345 342 338 334 331 328 323
137 135 136 135 133 131 131 131 130 126 122 106 31 13 38 49 34 17 359 347 339 330 323 328 326 320 323 324 325 330 330 330 331 333 334 334 335 335 334 333 332 330 327
140 139 137 137 139 142 137 140 145 150 160 178 219 316 342 334 317 309 306 306 309 309 308 304 301 302 299 295 290 286 292 296 298 301 308 313 316 320 323 325 325 325 324
146 146 146 147 146 150 154 163 170 180 193 212 233 248 261 271 280 285 288 291 294 295 295 292 285 288 292 294 293 288 282 283 289 288 288 293 298 301 303 306 309 312 314
148 149 151 154 157 160 164 171 181 193 208 225 240 255 270 277 282 286 288 288 291 290 293 292 287 288 289 289 291 291 292 293 294 292 286 284 286 288 290 292 295 298 300
151 153 154 156 161 166 171 178 190 200 214 232 244 253 266 275 281 285 290 292 295 294 295 294 294 295 295 297 296 297 299 299 298 296 292 282 280 281 282 283 286 287 290
Height
1506 1506 1505 1504 1503 1502 1501 1500 1499 1497 1496 1494 1493 1492 1491 1489 1488 1487 1486 1485 1484 1483 1482 1482 1481 1481 1481 1482 1482 1482 1483 1483 1482 1482 1483 1484 1484 1484 1485 1486 1488 1489 1491
1505 1504 1504 1503 1502 1501 1500 1499 1498 1496 1495 1494 1492 1491 1490 1489 1487 1486 1485 1484 1483 1482 1481 1480 1479 1479 1479 1479 1479 1479 1479 1479 1479 1478 1479 1479 1480 1480 1481 1482 1483 1484 1485
1503 1503 1502 1502 1501 1500 1499 1498 1497 1496 1494 1493 1492 1491 1489 1488 1487 1485 1484 1483 1482 1480 1479 1478 1478 1477 1476 1476 1476 1476 1476 1476 1476 1475 1475 1475 1476 1476 1476 1477 1477 1478 1480
1502 1501 1501 1501 1500 1499 1498 1497 1496 1495 1494 1493 1491 1490 1489 1488 1486 1485 1483 1482 1481 1479 1478 1477 1476 1475 1475 1474 1474 1473 1473 1473 1472 1472 1471 1471 1472 1472 1472 1472 1472 1473 1474
1500 1500 1500 1500 1499 1498 1498 1497 1496 1494 1493 1492 1491 1490 1489 1487 1486 1484 1483 1481 1480 1479 1478 1476 1475 1474 1473 1472 1471 1470 1470 1469 1469 1469 1468 1468 1468 1468 1468 1468 1468 1468 1469
1497 1498 1498 1498 1497 1497 1496 1496 1495 1494 1492 1491 1490 1489 1488 1486 1485 1483 1482 1481 1479 1478 1476 1475 1474 1472 1471 1470 1469 1468 1467 1466 1466 1465 1465 1464 1464 1464 1464 1464 1464 1464 1464
1495 1495 1496 1496 1495 1495 1495 1494 1493 1492 1491 1490 1489 1488 1487 1485 1484 1482 1481 1479 1478 1476 1475 1474 1472 1471 1469 1468 1467 1466 1465 1464 1464 1463 1462 1462 1461 1461 1460 1460 1460 1459 1459
1492 1493 1493 1493 1493 1493 1493 1492 1491 1491 1490 1488 1487 1486 1485 1484 1482 1481 1480 1478 1477 1475 1473 1472 1471 1469 1468 1466 1465 1464 1463 1462 1461 1460 1459 1459 1458 1457 1456 1456 1455 1455 1455
1489 1490 1490 1490 1490 1490 1490 1489 1489 1488 1487 1486 1485 1484 1483 1482 1481 1479 1478 1476 1475 1473 1472 1470 1469 1468 1466 1465 1463 1462 1461 1460 1459 1458 1457 1456 1454 1454 1453 1452 1451 1451 1450
1486 1487 1487 1487 1487 1487 1486 1486 1485 1485 1484 1483 1482 1481 1480 1479 1478 1477 1475 1474 1473 1472 1470 1469 1467 1466 1465 1463 1461 1460 1458 1457 1456 1455 1454 1453 1452 1450 1449 1449 1448 1447 1446
1483 1483 1484 1484 1483 1483 1482 1482 1481 1480 1480 1479 1478 1477 1476 1475 1475 1474 1472 1471 1470 1469 1468 1467 1466 1464 1463 1461 1460 1458 1456 1455 1454 1453 1451 1450 1449 1448 1446 1446 1445 1444 1443
1479 1480 1480 1480 1479 1479 1478 1477 1476 1476 1475 1474 1473 1473 1472 1472 1471 1470 1469 1468 1467 1466 1466 1465 1463 1462 1461 1459 1458 1456 1455 1453 1452 1450 1449 1447 1446 1445 1444 1442 1441 1440 1439
1476 1476 1476 1476 1476 1475 1474 1472 1471 1471 1470 1469 1468 1468 1467 1467 1466 1466 1465 1464 1464 1463 1463 1462 1461 1460 1458 1457 1456 1454 1452 1451 1449 1448 1446 1445 1444 1442 1441 1439 1438 1436 1435
1472 1473 1473 1472 1472 1470 1469 1468 1467 1466 1465 1464 1464 1463 1463 1462 1462 1461 1461 1460 1460 1460 1459 1459 1458 1457 1456 1454 1453 1452 1450 1449 1447 1446 1444 1443 1441 1439 1438 1436 1434 1433 1431
1469 1469 1469 1469 1468 1467 1466 1465 1463 1462 1462 1461 1460 1459 1458 1458 1458 1457 1457 1456 1456 1456 1456 1455 1454 1454 1453 1452 1451 1449 1448 1446 1445 1443 1442 1440 1438 1437 1435 1433 1431 1430 1428
1465 1465 1465 1465 1465 1464 1463 1462 1461 1461 1460 1458 1458 1457 1456 1455 1454 1454 1453 1453 1452 1452 1452 1452 1451 1450 1450 1449 1448 1447 1446 1444 1442 1441 1439 1437 1435 1434 1432 1430 1429 1427 1425
1461 1462 1462 1462 1462 1462 1461 1461 1460 1460 1459 1458 1456 1455 1454 1453 1452 1451 1450 1450 1449 1449 1449 1449 1448 1448 1447 1446 1445 1443 1442 1441 1439 1438 1436 1434 1432 1431 1429 1427 1425 1423 1421
1457 1458 1459 1459 1459 1459 1459 1459 1459 1459 1458 1457 1456 1454 1453 1452 1450 1449 1448 1448 1447 1447 1447 1446 1446 1445 1444 1443 1442 1440 1439 1438 1436 1435 1433 1431 1429 1427 1425 1424 1422 1419 1417
1454 1455 1456 1456 1457 1457 1458 1458 1458 1457 1457 1456 1455 1454 1453 1451 1450 1449 1448 1447 1446 1445 1445 1444 1444 1443 1442 1440 1439 1438 1436 1435 1433 1431 1429 1427 1425 1424 1421 1420 1418 1415 1413
1450 1452 1453 1454 1455 1456 1456 1456 1457 1456 1456 1455 1454 1454 1453 1452 1450 1449 1448 1447 1446 1445 1444 1443 1442 1441 1440 1438 1437 1435 1434 1432 1430 1428 1426 1424 1422 1419 1417 1415 1413 1411 1409
1447 1449 1450 1452 1453 1454 1455 1455 1455 1455 1455 1454 1454 1453 1453 1452 1450 1449 1448 1447 1446 1445 1444 1443 1441 1440 1438 1437 1435 1433 1431 1429 1427 1425 1422 1420 1418 1415 1413 1411 1409 1406 1404
1444 1446 1448 1449 1451 1452 1453 1454 1454 1454 1454 1454 1453 1453 1452 1451 1450 1449 1448 1447 1446 1444 1443 1442 1440 1438 1437 1435 1433 1431 1428 1426 1424 1421 1419 1416 1414 1411 1409 1406 1403 1401 1399
1441 1443 1445 1447 1449 1450 1451 1452 1453 1453 1453 1453 1453 1452 1452 1451 1450 1449 1447 1446 1445 1443 1442 1440 1438 1436 1434 1432 1430 1428 1425 1423 1420 1418 1415 1412 1410 1407 1404 1401 1399 1396 1393
1438 1441 1443 1445 1447 1448 1449 1450 1451 1451 1452 1451 1451 1451 1450 1449 1448 1447 1445 1444 1442 1441 1439 1437 1435 1433 1431 1429 1427 1424 1422 1419 1416 1414 1411 1408 1405 1402 1399 1396 1393 1391 1388
1436 1438 1440 1442 1444 1446 1447 1448 1449 1449 1449 1449 1449 1448 1447 1446 1445 1444 1442 1441 1439 1437 1435 1433 1431 1428 1426 1423 1421 1419 1416 1413 1411 1408 1405 1402 1398 1396 1393 1390 1387 1384 1382
1433 1436 1438 1440 1442 1443 1445 1445 1446 1446 1446 1446 1446 1445 1444 1443 1442 1440 1438 1436 1434 1432 1430 1427 1425 1422 1420 1417 1414 1412 1409 1406 1403 1401 1397 1394 1391 1388 1385 1382 1379 1377 1374